IGITA LIMG-LIMP

Flight info

Callsign IGITA
Flight time 1h 17m
Altitude 10000
Route MGNE1 DCT MJW1DCT MJNE1 DCT VOG/IFR DCT MISBO
Aircraft P28R/L-SDHG/C

Departure

Time 2026-04-23 20:11
Airport Riviera Villanova d'Albenga International Airport (LIMG)

Arrival

Time 2026-04-23 21:28
Airport Parma Airport (LIMP)
Time Latitude Longitude Altitude Speed Heading
2026-04-23 19:55 44.04563 8.12623 154 ft 0 kts 180°
2026-04-23 20:07 44.04561 8.12622 151 ft 2 kts 200°
2026-04-23 20:07 44.04571 8.12578 153 ft 9 kts 274°
2026-04-23 20:08 44.04567 8.12469 157 ft 13 kts 291°
2026-04-23 20:08 44.04603 8.12327 161 ft 19 kts 295°
2026-04-23 20:08 44.04712 8.12215 169 ft 19 kts 312°
2026-04-23 20:08 44.04797 8.12081 172 ft 19 kts 315°
2026-04-23 20:09 44.04887 8.11950 170 ft 18 kts 312°
2026-04-23 20:09 44.04964 8.11863 168 ft 14 kts
2026-04-23 20:09 44.05008 8.11867 169 ft 0 kts 13°
2026-04-23 20:09 44.05011 8.11867 169 ft 3 kts 352°
2026-04-23 20:10 44.05041 8.11861 169 ft 10 kts 355°
2026-04-23 20:10 44.05089 8.11965 167 ft 30 kts 90°
2026-04-23 20:10 44.05065 8.12488 156 ft 76 kts 93°
2026-04-23 20:10 44.05045 8.13299 304 ft 85 kts 90°
2026-04-23 20:11 44.05019 8.14071 603 ft 74 kts 90°
2026-04-23 20:11 44.05043 8.14865 753 ft 85 kts 75°
2026-04-23 20:11 44.05247 8.15659 952 ft 90 kts 64°
2026-04-23 20:11 44.05521 8.16482 1031 ft 101 kts 63°
2026-04-23 20:12 44.05889 8.17390 1065 ft 113 kts 57°
2026-04-23 20:12 44.06305 8.18357 1106 ft 119 kts 59°
2026-04-23 20:12 44.06723 8.19374 1158 ft 122 kts 59°
2026-04-23 20:12 44.07112 8.20290 1495 ft 101 kts 56°
2026-04-23 20:13 44.07483 8.21072 1725 ft 95 kts 54°
2026-04-23 20:13 44.07884 8.21806 1884 ft 97 kts 46°
2026-04-23 20:13 44.08396 8.22431 2026 ft 99 kts 39°
2026-04-23 20:13 44.08903 8.23103 2157 ft 101 kts 45°
2026-04-23 20:14 44.09432 8.23714 2352 ft 97 kts 33°
2026-04-23 20:14 44.09986 8.24267 2500 ft 98 kts 37°
2026-04-23 20:14 44.10470 8.24911 2689 ft 96 kts 50°
2026-04-23 20:14 44.10880 8.25650 2830 ft 97 kts 53°
2026-04-23 20:15 44.11143 8.26161 2923 ft 98 kts 55°
2026-04-23 20:15 44.11532 8.26945 3067 ft 99 kts 54°
2026-04-23 20:15 44.11916 8.27756 3218 ft 99 kts 58°
2026-04-23 20:15 44.12240 8.28593 3355 ft 98 kts 64°
2026-04-23 20:16 44.12519 8.29434 3475 ft 97 kts 65°
2026-04-23 20:16 44.12816 8.30288 3565 ft 99 kts 63°
2026-04-23 20:16 44.13138 8.31148 3650 ft 100 kts 62°
2026-04-23 20:16 44.13450 8.32000 3788 ft 97 kts 63°
2026-04-23 20:17 44.13763 8.32804 3910 ft 94 kts 56°
2026-04-23 20:17 44.14160 8.33503 4031 ft 92 kts 48°
2026-04-23 20:17 44.14585 8.34182 4151 ft 92 kts 50°
2026-04-23 20:17 44.14999 8.34857 4274 ft 93 kts 47°
2026-04-23 20:18 44.15437 8.35481 4436 ft 89 kts 44°
2026-04-23 20:18 44.15875 8.36073 4546 ft 90 kts 44°
2026-04-23 20:18 44.16340 8.36655 4664 ft 90 kts 40°
2026-04-23 20:18 44.16864 8.37141 4798 ft 90 kts 28°
2026-04-23 20:19 44.17454 8.37515 4850 ft 98 kts 26°
2026-04-23 20:19 44.18026 8.37960 5020 ft 93 kts 34°
2026-04-23 20:19 44.18581 8.38449 5120 ft 96 kts 33°
2026-04-23 20:19 44.19133 8.38960 5250 ft 95 kts 37°
2026-04-23 20:20 44.19646 8.39549 5377 ft 95 kts 42°
2026-04-23 20:20 44.20148 8.40148 5535 ft 94 kts 41°
2026-04-23 20:20 44.20637 8.40762 5693 ft 93 kts 45°
2026-04-23 20:20 44.21088 8.41407 5824 ft 94 kts 49°
2026-04-23 20:21 44.21526 8.42087 5982 ft 92 kts 46°
2026-04-23 20:21 44.22010 8.42647 6145 ft 89 kts 37°
2026-04-23 20:21 44.22530 8.43111 6288 ft 89 kts 34°
2026-04-23 20:21 44.23036 8.43548 6454 ft 86 kts 34°
2026-04-23 20:22 44.23562 8.43983 6563 ft 89 kts 33°
2026-04-23 20:22 44.24098 8.44449 6658 ft 94 kts 37°
2026-04-23 20:22 44.24612 8.44979 6821 ft 90 kts 40°
2026-04-23 20:22 44.25098 8.45522 6954 ft 91 kts 41°
2026-04-23 20:23 44.25584 8.46128 7051 ft 93 kts 47°
2026-04-23 20:23 44.25993 8.46805 7184 ft 92 kts 52°
2026-04-23 20:23 44.26406 8.47502 7305 ft 92 kts 49°
2026-04-23 20:23 44.26871 8.48114 7421 ft 94 kts 41°
2026-04-23 20:24 44.27376 8.48697 7553 ft 93 kts 43°
2026-04-23 20:24 44.27856 8.49315 7689 ft 94 kts 47°
2026-04-23 20:24 44.28305 8.49978 7827 ft 93 kts 47°
2026-04-23 20:24 44.28765 8.50612 7943 ft 95 kts 45°
2026-04-23 20:25 44.29229 8.51269 8089 ft 94 kts 49°
2026-04-23 20:25 44.29667 8.51933 8212 ft 95 kts 49°
2026-04-23 20:25 44.30100 8.52551 8441 ft 84 kts 46°
2026-04-23 20:25 44.30534 8.53179 8494 ft 93 kts 49°
2026-04-23 20:26 44.30958 8.53857 8601 ft 97 kts 51°
2026-04-23 20:26 44.31336 8.54633 8758 ft 94 kts 63°
2026-04-23 20:26 44.31530 8.55521 8846 ft 97 kts 73°
2026-04-23 20:26 44.31752 8.56399 8998 ft 95 kts 67°
2026-04-23 20:27 44.32009 8.57259 9097 ft 97 kts 66°
2026-04-23 20:27 44.32292 8.58150 9129 ft 106 kts 66°
2026-04-23 20:27 44.32586 8.59105 9220 ft 107 kts 65°
2026-04-23 20:27 44.32889 8.60055 9335 ft 106 kts 65°
2026-04-23 20:28 44.33177 8.60958 9445 ft 105 kts 65°
2026-04-23 20:28 44.33558 8.61862 9573 ft 104 kts 58°
2026-04-23 20:28 44.33931 8.62707 9695 ft 103 kts 58°
2026-04-23 20:28 44.34302 8.63549 9819 ft 102 kts 58°
2026-04-23 20:29 44.34673 8.64384 9946 ft 100 kts 58°
2026-04-23 20:29 44.35041 8.65210 10069 ft 100 kts 58°
2026-04-23 20:29 44.35412 8.66041 10135 ft 104 kts 58°
2026-04-23 20:29 44.35801 8.66920 10164 ft 110 kts 58°
2026-04-23 20:30 44.36217 8.67853 10170 ft 116 kts 58°
2026-04-23 20:30 44.37098 8.69836 10169 ft 123 kts 61°
2026-04-23 20:30 44.37516 8.70892 10166 ft 125 kts 61°
2026-04-23 20:31 44.37937 8.71961 10163 ft 126 kts 61°
2026-04-23 20:31 44.38359 8.73031 10163 ft 126 kts 61°
2026-04-23 20:31 44.38751 8.74022 10160 ft 123 kts 63°
2026-04-23 20:31 44.39130 8.75107 10158 ft 121 kts 64°
2026-04-23 20:32 44.39492 8.76151 10154 ft 120 kts 64°
2026-04-23 20:32 44.39856 8.77198 10154 ft 120 kts 64°
2026-04-23 20:32 44.40220 8.78239 10151 ft 119 kts 64°
2026-04-23 20:32 44.40582 8.79285 10148 ft 119 kts 64°
2026-04-23 20:33 44.40944 8.80324 10145 ft 119 kts 64°
2026-04-23 20:33 44.41309 8.81365 10149 ft 119 kts 64°
2026-04-23 20:33 44.41686 8.82391 10141 ft 118 kts 55°
2026-04-23 20:33 44.42311 8.83130 10147 ft 118 kts 39°
2026-04-23 20:34 44.42964 8.83833 10152 ft 118 kts 40°
2026-04-23 20:34 44.43711 8.84269 10147 ft 122 kts
2026-04-23 20:34 44.44549 8.84127 10149 ft 123 kts 359°
2026-04-23 20:34 44.45403 8.84001 10160 ft 124 kts 359°
2026-04-23 20:35 44.46268 8.83874 10160 ft 126 kts 359°
2026-04-23 20:35 44.47144 8.83744 10159 ft 125 kts 360°
2026-04-23 20:35 44.48002 8.83678 10156 ft 122 kts
2026-04-23 20:35 44.48855 8.83614 10158 ft 123 kts
2026-04-23 20:36 44.49733 8.83550 10081 ft 131 kts
2026-04-23 20:36 44.50666 8.83488 9965 ft 137 kts
2026-04-23 20:36 44.51627 8.83437 9852 ft 139 kts
2026-04-23 20:36 44.52602 8.83446 9730 ft 141 kts
2026-04-23 20:37 44.53583 8.83462 9606 ft 141 kts
2026-04-23 20:37 44.54566 8.83499 9480 ft 141 kts
2026-04-23 20:37 44.55548 8.83542 9351 ft 142 kts
2026-04-23 20:37 44.56530 8.83636 9228 ft 141 kts
2026-04-23 20:38 44.57515 8.83785 9103 ft 143 kts
2026-04-23 20:38 44.58512 8.83938 8979 ft 144 kts
2026-04-23 20:38 44.59508 8.84092 8856 ft 144 kts
2026-04-23 20:38 44.60516 8.84247 8722 ft 143 kts
2026-04-23 20:39 44.61502 8.84398 8596 ft 142 kts
2026-04-23 20:39 44.62486 8.84550 8464 ft 142 kts
2026-04-23 20:39 44.63453 8.84701 8344 ft 142 kts
2026-04-23 20:39 44.64432 8.84853 8220 ft 141 kts
2026-04-23 20:40 44.65402 8.85077 8096 ft 141 kts 14°
2026-04-23 20:40 44.66343 8.85350 7974 ft 140 kts 14°
2026-04-23 20:40 44.67287 8.85626 7846 ft 140 kts 14°
2026-04-23 20:40 44.68256 8.85909 7723 ft 140 kts 14°
2026-04-23 20:41 44.69198 8.86189 7604 ft 140 kts 14°
2026-04-23 20:41 44.70158 8.86475 7483 ft 142 kts 14°
2026-04-23 20:41 44.71128 8.86763 7364 ft 143 kts 13°
2026-04-23 20:41 44.72116 8.86995 7245 ft 144 kts 11°
2026-04-23 20:42 44.73108 8.87215 7126 ft 144 kts 11°
2026-04-23 20:42 44.74104 8.87437 7004 ft 144 kts 11°
2026-04-23 20:42 44.75092 8.87637 6884 ft 144 kts 10°
2026-04-23 20:42 44.76073 8.87829 6770 ft 144 kts 10°
2026-04-23 20:43 44.77067 8.88025 6645 ft 144 kts
2026-04-23 20:43 44.78057 8.88232 6524 ft 144 kts 12°
2026-04-23 20:43 44.79032 8.88560 6391 ft 144 kts 15°
2026-04-23 20:43 44.80003 8.88912 6266 ft 144 kts 16°
2026-04-23 20:44 44.80957 8.89262 6140 ft 144 kts 16°
2026-04-23 20:44 44.81922 8.89620 6016 ft 143 kts 15°
2026-04-23 20:44 44.82884 8.89986 5889 ft 144 kts 15°
2026-04-23 20:44 44.83846 8.90375 5758 ft 144 kts 17°
2026-04-23 20:45 44.84772 8.90793 5791 ft 134 kts 18°
2026-04-23 20:45 44.85629 8.91181 5867 ft 124 kts 18°
2026-04-23 20:45 44.86414 8.91566 5965 ft 116 kts 20°
2026-04-23 20:45 44.87159 8.91932 6073 ft 111 kts 19°
2026-04-23 20:46 44.87877 8.92279 6149 ft 109 kts 19°
2026-04-23 20:46 44.88616 8.92634 6151 ft 114 kts 19°
2026-04-23 20:46 44.89375 8.92998 6154 ft 116 kts 19°
2026-04-23 20:46 44.90143 8.93368 6158 ft 118 kts 19°
2026-04-23 20:47 44.90922 8.93744 6164 ft 119 kts 19°
2026-04-23 20:47 44.91709 8.94150 6162 ft 120 kts 21°
2026-04-23 20:47 44.92488 8.94585 6163 ft 120 kts 22°
2026-04-23 20:47 44.93254 8.95021 6164 ft 121 kts 22°
2026-04-23 20:48 44.93946 8.95665 6155 ft 121 kts 47°
2026-04-23 20:48 44.94520 8.96550 6159 ft 121 kts 46°
2026-04-23 20:48 44.94902 8.97126 6162 ft 121 kts 46°
2026-04-23 20:48 44.95670 8.98282 6162 ft 122 kts 46°
2026-04-23 20:49 44.96252 8.99158 6161 ft 122 kts 46°
2026-04-23 20:49 44.96809 9.00060 6155 ft 122 kts 61°
2026-04-23 20:49 44.96953 9.00828 6154 ft 123 kts 79°
2026-04-23 20:49 44.97052 9.02030 6157 ft 123 kts 82°
2026-04-23 20:50 44.97146 9.03233 6156 ft 123 kts 82°
2026-04-23 20:50 44.97243 9.04440 6159 ft 124 kts 82°
2026-04-23 20:50 44.97339 9.05648 6160 ft 124 kts 82°
2026-04-23 20:50 44.97437 9.06862 6161 ft 125 kts 82°
2026-04-23 20:51 44.97539 9.08080 6161 ft 125 kts 82°
2026-04-23 20:51 44.97640 9.09295 6162 ft 125 kts 82°
2026-04-23 20:51 44.97743 9.10514 6162 ft 125 kts 82°
2026-04-23 20:51 44.97845 9.11731 6163 ft 125 kts 82°
2026-04-23 20:52 44.97949 9.12950 6161 ft 124 kts 82°
2026-04-23 20:52 44.98050 9.14145 6163 ft 124 kts 82°
2026-04-23 20:52 44.98156 9.15373 6165 ft 125 kts 81°
2026-04-23 20:52 44.98261 9.16581 6161 ft 126 kts 82°
2026-04-23 20:53 44.98369 9.17806 6161 ft 126 kts 82°
2026-04-23 20:53 44.98480 9.19033 6162 ft 126 kts 81°
2026-04-23 20:53 44.98590 9.20265 6160 ft 127 kts 81°
2026-04-23 20:53 44.98701 9.21504 6160 ft 127 kts 82°
2026-04-23 20:54 44.98812 9.22743 6161 ft 127 kts 82°
2026-04-23 20:54 44.98925 9.23977 6160 ft 126 kts 81°
2026-04-23 20:54 44.99039 9.25203 6158 ft 126 kts 82°
2026-04-23 20:54 44.99151 9.26432 6157 ft 126 kts 81°
2026-04-23 20:55 44.99264 9.27636 6157 ft 126 kts 81°
2026-04-23 20:55 44.99380 9.28863 6159 ft 126 kts 81°
2026-04-23 20:55 44.99496 9.30097 6159 ft 127 kts 81°
2026-04-23 20:55 44.99612 9.31336 6158 ft 127 kts 82°
2026-04-23 20:56 44.99701 9.32558 6154 ft 127 kts 83°
2026-04-23 20:56 44.99789 9.33798 6155 ft 127 kts 83°
2026-04-23 20:56 44.99876 9.35043 6157 ft 127 kts 83°
2026-04-23 20:56 44.99964 9.36283 6160 ft 127 kts 83°
2026-04-23 20:57 45.00053 9.37513 6157 ft 127 kts 83°
2026-04-23 20:57 45.00142 9.38768 6159 ft 127 kts 83°
2026-04-23 20:57 45.00231 9.40018 6157 ft 128 kts 83°
2026-04-23 20:57 45.00321 9.41265 6159 ft 128 kts 83°
2026-04-23 20:58 45.00412 9.42516 6158 ft 128 kts 83°
2026-04-23 20:58 45.00504 9.43766 6161 ft 128 kts 83°
2026-04-23 20:58 45.00594 9.45016 6155 ft 128 kts 83°
2026-04-23 20:58 45.00693 9.46264 6154 ft 128 kts 82°
2026-04-23 20:59 45.00798 9.47510 6152 ft 128 kts 82°
2026-04-23 20:59 45.00884 9.48759 6151 ft 128 kts 85°
2026-04-23 20:59 45.00942 9.50013 6154 ft 128 kts 85°
2026-04-23 20:59 45.01005 9.51267 6150 ft 128 kts 85°
2026-04-23 21:00 45.01065 9.52522 6150 ft 128 kts 85°
2026-04-23 21:00 45.01126 9.53774 6152 ft 128 kts 84°
2026-04-23 21:00 45.01177 9.55028 6151 ft 128 kts 88°
2026-04-23 21:00 45.01160 9.56287 6150 ft 128 kts 90°
2026-04-23 21:01 45.01143 9.57547 6153 ft 128 kts 90°
2026-04-23 21:01 45.01127 9.58809 6151 ft 128 kts 90°
2026-04-23 21:01 45.01111 9.60054 6153 ft 128 kts 89°
2026-04-23 21:01 45.01094 9.61189 6149 ft 128 kts 89°
2026-04-23 21:02 45.01076 9.62449 6149 ft 128 kts 89°
2026-04-23 21:02 45.01058 9.63711 6148 ft 128 kts 90°
2026-04-23 21:02 45.01040 9.64971 6146 ft 128 kts 89°
2026-04-23 21:02 45.01021 9.66228 6145 ft 128 kts 89°
2026-04-23 21:03 45.01001 9.67484 6145 ft 128 kts 89°
2026-04-23 21:03 45.00979 9.68741 6143 ft 128 kts 89°
2026-04-23 21:03 45.00960 9.69993 6144 ft 128 kts 89°
2026-04-23 21:03 45.00938 9.71248 6146 ft 128 kts 89°
2026-04-23 21:04 45.00917 9.72501 6141 ft 128 kts 89°
2026-04-23 21:04 45.00945 9.73758 6138 ft 128 kts 84°
2026-04-23 21:04 45.00987 9.74997 6138 ft 128 kts 85°
2026-04-23 21:04 45.01026 9.76255 6139 ft 128 kts 85°
2026-04-23 21:05 45.01067 9.77511 6139 ft 128 kts 85°
2026-04-23 21:05 45.01110 9.78767 6143 ft 128 kts 85°
2026-04-23 21:05 45.01151 9.80023 6138 ft 128 kts 85°
2026-04-23 21:05 45.01191 9.81277 6135 ft 128 kts 85°
2026-04-23 21:06 45.01232 9.82529 6141 ft 128 kts 85°
2026-04-23 21:06 45.01275 9.83784 6142 ft 128 kts 85°
2026-04-23 21:06 45.01315 9.85038 6136 ft 128 kts 85°
2026-04-23 21:06 45.01366 9.86293 6136 ft 127 kts 83°
2026-04-23 21:07 45.01438 9.87546 6139 ft 128 kts 83°
2026-04-23 21:07 45.01509 9.88797 6138 ft 128 kts 84°
2026-04-23 21:07 45.01570 9.90054 6137 ft 128 kts 84°
2026-04-23 21:07 45.01631 9.91303 6133 ft 127 kts 83°
2026-04-23 21:08 45.01691 9.92552 6134 ft 127 kts 84°
2026-04-23 21:08 45.01752 9.93786 6132 ft 128 kts 84°
2026-04-23 21:08 45.01815 9.95036 6135 ft 127 kts 84°
2026-04-23 21:08 45.01878 9.96284 6134 ft 128 kts 84°
2026-04-23 21:09 45.01940 9.97539 6131 ft 128 kts 83°
2026-04-23 21:09 45.02004 9.98795 6134 ft 128 kts 83°
2026-04-23 21:09 45.02069 10.00052 6129 ft 128 kts 83°
2026-04-23 21:09 45.02133 10.01307 6132 ft 128 kts 83°
2026-04-23 21:10 45.02198 10.02565 6133 ft 128 kts 84°
2026-04-23 21:10 45.02262 10.03818 6130 ft 128 kts 83°
2026-04-23 21:10 45.02326 10.05075 6133 ft 127 kts 84°
2026-04-23 21:10 45.02364 10.06322 6133 ft 127 kts 86°
2026-04-23 21:11 45.02397 10.07581 6116 ft 129 kts 85°
2026-04-23 21:11 45.02339 10.08825 6137 ft 128 kts 109°
2026-04-23 21:11 45.01774 10.09850 6021 ft 137 kts 135°
2026-04-23 21:11 45.01082 10.10787 5969 ft 138 kts 135°
2026-04-23 21:12 45.00398 10.11738 5943 ft 138 kts 134°
2026-04-23 21:12 44.99709 10.12690 5903 ft 138 kts 135°
2026-04-23 21:12 44.99038 10.13652 5889 ft 137 kts 133°
2026-04-23 21:12 44.98387 10.14614 5849 ft 137 kts 132°
2026-04-23 21:13 44.97921 10.15773 5776 ft 138 kts 102°
2026-04-23 21:13 44.97890 10.17124 5684 ft 137 kts 79°
2026-04-23 21:13 44.98187 10.18387 5657 ft 134 kts 66°
2026-04-23 21:13 44.98532 10.19588 5639 ft 132 kts 65°
2026-04-23 21:14 44.98865 10.20812 5584 ft 134 kts 69°
2026-04-23 21:14 44.99050 10.22126 5486 ft 139 kts 82°
2026-04-23 21:14 44.99066 10.23513 5364 ft 143 kts 90°
2026-04-23 21:14 44.98979 10.24914 5267 ft 143 kts 95°
2026-04-23 21:15 44.98803 10.26324 5099 ft 146 kts 102°
2026-04-23 21:15 44.98492 10.27718 4870 ft 151 kts 109°
2026-04-23 21:15 44.98132 10.29105 4694 ft 150 kts 107°
2026-04-23 21:15 44.97855 10.30501 4525 ft 149 kts 104°
2026-04-23 21:16 44.97663 10.31929 4366 ft 147 kts 94°
2026-04-23 21:16 44.97572 10.33362 4238 ft 146 kts 95°
2026-04-23 21:16 44.97308 10.34721 4105 ft 143 kts 118°
2026-04-23 21:16 44.96640 10.35821 3848 ft 152 kts 148°
2026-04-23 21:17 44.95630 10.36107 3507 ft 150 kts 195°
2026-04-23 21:17 44.94682 10.35597 3291 ft 141 kts 209°
2026-04-23 21:17 44.93816 10.34985 3046 ft 139 kts 211°
2026-04-23 21:17 44.92959 10.34418 2907 ft 132 kts 207°
2026-04-23 21:18 44.92111 10.33992 2888 ft 127 kts 202°
2026-04-23 21:18 44.91265 10.33623 2812 ft 132 kts 202°
2026-04-23 21:18 44.90420 10.33210 2927 ft 125 kts 203°
2026-04-23 21:18 44.89666 10.32874 2974 ft 123 kts 203°
2026-04-23 21:19 44.89040 10.32127 3026 ft 118 kts 242°
2026-04-23 21:19 44.88809 10.31070 3142 ft 112 kts 270°
2026-04-23 21:19 44.89025 10.30008 3110 ft 121 kts 301°
2026-04-23 21:19 44.89657 10.29189 3052 ft 128 kts 331°
2026-04-23 21:20 44.90556 10.29027 2958 ft 137 kts
2026-04-23 21:20 44.91501 10.29271 2897 ft 136 kts
2026-04-23 21:20 44.92408 10.29502 2844 ft 129 kts
2026-04-23 21:20 44.93284 10.29742 2760 ft 126 kts
2026-04-23 21:21 44.94154 10.29928 2627 ft 129 kts
2026-04-23 21:21 44.95043 10.30186 2507 ft 129 kts
2026-04-23 21:21 44.95904 10.30440 2432 ft 127 kts
2026-04-23 21:21 44.96682 10.31022 2404 ft 128 kts 43°
2026-04-23 21:22 44.97077 10.32162 2332 ft 134 kts 75°
2026-04-23 21:22 44.97034 10.33518 2136 ft 143 kts 106°
2026-04-23 21:22 44.96534 10.34723 1986 ft 144 kts 134°
2026-04-23 21:22 44.95731 10.35445 1931 ft 132 kts 172°
2026-04-23 21:23 44.94870 10.35331 1947 ft 121 kts 202°
2026-04-23 21:23 44.94070 10.34945 1922 ft 121 kts 206°
2026-04-23 21:23 44.93302 10.34531 1945 ft 114 kts 207°
2026-04-23 21:23 44.92578 10.34178 1968 ft 109 kts 200°
2026-04-23 21:24 44.91847 10.33926 1937 ft 106 kts 200°
2026-04-23 21:24 44.91111 10.33642 1733 ft 111 kts 203°
2026-04-23 21:24 44.90390 10.33343 1488 ft 104 kts 200°
2026-04-23 21:24 44.89734 10.33099 1369 ft 91 kts 208°
2026-04-23 21:25 44.89156 10.32735 1273 ft 91 kts 207°
2026-04-23 21:25 44.88570 10.32409 1203 ft 89 kts 206°
2026-04-23 21:25 44.88001 10.32119 1164 ft 88 kts 201°
2026-04-23 21:25 44.87367 10.31942 991 ft 92 kts 202°
2026-04-23 21:26 44.86773 10.31597 839 ft 92 kts 202°
2026-04-23 21:26 44.86182 10.31326 713 ft 89 kts 200°
2026-04-23 21:26 44.85622 10.31022 627 ft 86 kts 201°
2026-04-23 21:26 44.85235 10.30853 553 ft 86 kts 198°
2026-04-23 21:27 44.84674 10.30591 452 ft 84 kts 197°
2026-04-23 21:27 44.84120 10.30355 351 ft 82 kts 198°
2026-04-23 21:27 44.83580 10.30112 225 ft 81 kts 198°
2026-04-23 21:27 44.83048 10.29877 153 ft 74 kts 198°
2026-04-23 21:28 44.82647 10.29701 159 ft 50 kts 197°
2026-04-23 21:28 44.82342 10.29568 158 ft 41 kts 196°
2026-04-23 21:28 44.82185 10.29523 162 ft 10 kts 125°
2026-04-23 21:28 44.82158 10.29637 160 ft 7 kts 105°
2026-04-23 21:29 44.82181 10.29672 158 ft 0 kts 16°
2026-04-23 21:29 44.82192 10.29677 158 ft 5 kts 16°
2026-04-23 21:29 44.82253 10.29705 159 ft 13 kts 15°
2026-04-23 21:29 44.82289 10.29759 159 ft 10 kts 113°
2026-04-23 21:30 44.82295 10.29822 158 ft 6 kts 19°
2026-04-23 21:30 44.82319 10.29818 158 ft 4 kts 278°
2026-04-23 21:30 44.82320 10.29809 158 ft 0 kts 283°
2026-04-23 21:30 44.82323 10.29787 159 ft 4 kts 238°
2026-04-23 21:31 44.82308 10.29796 158 ft 0 kts 150°